Year,Month,Day,Hour,Minute,Value (Times are PST for temperature in C)
2021,01,18,00,00,2.80
2021,01,18,00,01,2.80
2021,01,18,00,02,2.80
2021,01,18,00,03,2.70
2021,01,18,00,04,2.70
2021,01,18,00,05,2.60
2021,01,18,00,06,2.50
2021,01,18,00,07,2.40
2021,01,18,00,08,2.40
2021,01,18,00,09,2.30
2021,01,18,00,10,2.40
2021,01,18,00,11,2.40
2021,01,18,00,12,2.40
2021,01,18,00,13,2.50
2021,01,18,00,14,2.50
2021,01,18,00,15,2.50
2021,01,18,00,16,2.50
2021,01,18,00,17,2.50
2021,01,18,00,18,2.50
2021,01,18,00,19,2.40
2021,01,18,00,20,2.40
2021,01,18,00,21,2.30
2021,01,18,00,22,2.30
2021,01,18,00,23,2.30
2021,01,18,00,24,2.20
2021,01,18,00,25,2.20
2021,01,18,00,26,2.20
2021,01,18,00,27,2.20
2021,01,18,00,28,2.20
2021,01,18,00,29,2.10
2021,01,18,00,30,2.10
2021,01,18,00,31,2.10
2021,01,18,00,32,2.10
2021,01,18,00,33,2.10
2021,01,18,00,34,2.10
2021,01,18,00,35,2.10
2021,01,18,00,36,2.10
2021,01,18,00,37,2.10
2021,01,18,00,38,2.10
2021,01,18,00,39,2.10
2021,01,18,00,40,2.10
2021,01,18,00,41,2.10
2021,01,18,00,42,2.10
2021,01,18,00,43,2.10
2021,01,18,00,44,2.10
2021,01,18,00,45,2.10
2021,01,18,00,46,2.00
2021,01,18,00,47,2.00
2021,01,18,00,48,2.00
2021,01,18,00,49,2.00
2021,01,18,00,50,2.00
2021,01,18,00,51,2.00
2021,01,18,00,52,1.90
2021,01,18,00,53,1.90
2021,01,18,00,54,1.90
2021,01,18,00,55,1.90
2021,01,18,00,56,1.80
2021,01,18,00,57,1.80
2021,01,18,00,58,1.80
2021,01,18,00,59,1.80
2021,01,18,01,00,1.80
2021,01,18,01,01,1.80
2021,01,18,01,02,1.80
2021,01,18,01,03,1.70
2021,01,18,01,04,1.70
2021,01,18,01,05,1.70
2021,01,18,01,06,1.70
2021,01,18,01,07,1.70
2021,01,18,01,08,1.70
2021,01,18,01,09,1.70
2021,01,18,01,10,1.60
2021,01,18,01,11,1.60
2021,01,18,01,12,1.60
2021,01,18,01,13,1.60
2021,01,18,01,14,1.60
2021,01,18,01,15,1.60
2021,01,18,01,16,1.50
2021,01,18,01,17,1.50
2021,01,18,01,18,1.50
2021,01,18,01,19,1.50
2021,01,18,01,20,1.50
2021,01,18,01,21,1.50
2021,01,18,01,22,1.50
2021,01,18,01,23,1.50
2021,01,18,01,24,1.50
2021,01,18,01,25,1.50
2021,01,18,01,26,1.50
2021,01,18,01,27,1.50
2021,01,18,01,28,1.60
2021,01,18,01,29,1.60
2021,01,18,01,30,1.60
2021,01,18,01,31,1.60
2021,01,18,01,32,1.60
2021,01,18,01,33,1.60
2021,01,18,01,34,1.60
2021,01,18,01,35,1.50
2021,01,18,01,36,1.50
2021,01,18,01,37,1.50
2021,01,18,01,38,1.40
2021,01,18,01,39,1.40
2021,01,18,01,40,1.40
2021,01,18,01,41,1.40
2021,01,18,01,42,1.40
2021,01,18,01,43,1.40
2021,01,18,01,44,1.40
2021,01,18,01,45,1.40
2021,01,18,01,46,1.40
2021,01,18,01,47,1.40
2021,01,18,01,48,1.40
2021,01,18,01,49,1.40
2021,01,18,01,50,1.40
2021,01,18,01,51,1.40
2021,01,18,01,52,1.40
2021,01,18,01,53,1.40
2021,01,18,01,54,1.40
2021,01,18,01,55,1.40
2021,01,18,01,56,1.40
2021,01,18,01,57,1.40
2021,01,18,01,58,1.40
2021,01,18,01,59,1.40
2021,01,18,02,00,1.40
2021,01,18,02,01,1.40
2021,01,18,02,02,1.40
2021,01,18,02,03,1.40
2021,01,18,02,04,1.40
2021,01,18,02,05,1.40
2021,01,18,02,06,1.40
2021,01,18,02,07,1.40
2021,01,18,02,08,1.40
2021,01,18,02,09,1.40
2021,01,18,02,10,1.40
2021,01,18,02,11,1.30
2021,01,18,02,12,1.30
2021,01,18,02,13,1.30
2021,01,18,02,14,1.30
2021,01,18,02,15,1.30
2021,01,18,02,16,1.30
2021,01,18,02,17,1.30
2021,01,18,02,18,1.30
2021,01,18,02,19,1.20
2021,01,18,02,20,1.20
2021,01,18,02,21,1.10
2021,01,18,02,22,1.00
2021,01,18,02,23,1.00
2021,01,18,02,24,1.00
2021,01,18,02,25,0.90
2021,01,18,02,26,0.90
2021,01,18,02,27,0.90
2021,01,18,02,28,0.80
2021,01,18,02,29,0.80
2021,01,18,02,30,0.80
2021,01,18,02,31,0.80
2021,01,18,02,32,0.80
2021,01,18,02,33,0.80
2021,01,18,02,34,0.80
2021,01,18,02,35,0.80
2021,01,18,02,36,0.80
2021,01,18,02,37,0.80
2021,01,18,02,38,0.80
2021,01,18,02,39,0.80
2021,01,18,02,40,0.80
2021,01,18,02,41,0.80
2021,01,18,02,42,0.80
2021,01,18,02,43,0.80
2021,01,18,02,44,0.80
2021,01,18,02,45,0.90
2021,01,18,02,46,0.90
2021,01,18,02,47,0.90
2021,01,18,02,48,0.80
2021,01,18,02,49,0.90
2021,01,18,02,50,0.90
2021,01,18,02,51,0.90
2021,01,18,02,52,0.90
2021,01,18,02,53,0.90
2021,01,18,02,54,0.90
2021,01,18,02,55,0.90
2021,01,18,02,56,0.90
2021,01,18,02,57,0.90
2021,01,18,02,58,0.90
2021,01,18,02,59,0.80
2021,01,18,03,00,0.80
2021,01,18,03,01,0.80
2021,01,18,03,02,0.80
2021,01,18,03,03,0.80
2021,01,18,03,04,0.80
2021,01,18,03,05,0.80
2021,01,18,03,06,0.80
2021,01,18,03,07,0.90
2021,01,18,03,08,0.90
2021,01,18,03,09,0.90
2021,01,18,03,10,0.90
2021,01,18,03,11,0.90
2021,01,18,03,12,0.90
2021,01,18,03,13,0.90
2021,01,18,03,14,0.90
2021,01,18,03,15,0.90
2021,01,18,03,16,0.80
2021,01,18,03,17,0.80
2021,01,18,03,18,0.80
2021,01,18,03,19,0.80
2021,01,18,03,20,0.70
2021,01,18,03,21,0.70
2021,01,18,03,22,0.70
2021,01,18,03,23,0.70
2021,01,18,03,24,0.70
2021,01,18,03,25,0.80
2021,01,18,03,26,0.80
2021,01,18,03,27,0.80
2021,01,18,03,28,0.80
2021,01,18,03,29,0.80
2021,01,18,03,30,0.80
2021,01,18,03,31,0.80
2021,01,18,03,32,0.80
2021,01,18,03,33,0.70
2021,01,18,03,34,0.70
2021,01,18,03,35,0.70
2021,01,18,03,36,0.80
2021,01,18,03,37,0.80
2021,01,18,03,38,0.80
2021,01,18,03,39,0.80
2021,01,18,03,40,0.90
2021,01,18,03,41,0.90
2021,01,18,03,42,1.00
2021,01,18,03,43,1.00
2021,01,18,03,44,1.00
2021,01,18,03,45,1.00
2021,01,18,03,46,1.00
2021,01,18,03,47,1.00
2021,01,18,03,48,1.00
2021,01,18,03,49,0.90
2021,01,18,03,50,0.90
2021,01,18,03,51,0.80
2021,01,18,03,52,0.70
2021,01,18,03,53,0.60
2021,01,18,03,54,0.60
2021,01,18,03,55,0.60
2021,01,18,03,56,0.60
2021,01,18,03,57,0.60
2021,01,18,03,58,0.60
2021,01,18,03,59,0.60
2021,01,18,04,00,0.60
2021,01,18,04,01,0.60
2021,01,18,04,02,0.60
2021,01,18,04,03,0.60
2021,01,18,09,26,1.60
2021,01,18,09,27,1.60
2021,01,18,09,28,1.70
2021,01,18,09,29,1.70
2021,01,18,09,30,1.70
2021,01,18,09,31,1.70
2021,01,18,09,32,1.70
2021,01,18,09,33,1.70
2021,01,18,09,34,1.70
2021,01,18,09,35,1.70
2021,01,18,09,36,1.70
2021,01,18,09,37,1.60
2021,01,18,09,38,1.60
2021,01,18,09,39,1.60
2021,01,18,09,40,1.60
2021,01,18,09,41,1.60
2021,01,18,09,42,1.60
2021,01,18,09,43,1.70
2021,01,18,09,44,1.70
2021,01,18,09,45,1.80
2021,01,18,09,46,1.80
2021,01,18,09,47,1.90
2021,01,18,09,48,2.00
2021,01,18,09,49,2.00
2021,01,18,09,50,2.10
2021,01,18,09,51,2.20
2021,01,18,09,52,2.20
2021,01,18,09,53,2.20
2021,01,18,09,54,2.30
2021,01,18,09,55,2.30
2021,01,18,09,56,2.40
2021,01,18,09,57,2.40
2021,01,18,09,58,2.50
2021,01,18,09,59,2.50
2021,01,18,10,00,2.60
2021,01,18,10,01,2.70
2021,01,18,10,02,2.70
2021,01,18,10,03,2.80
2021,01,18,10,04,2.90
2021,01,18,10,05,3.00
2021,01,18,10,06,3.10
2021,01,18,10,07,3.20
2021,01,18,10,08,3.30
2021,01,18,10,09,3.30
2021,01,18,10,10,3.40
2021,01,18,10,11,3.50
2021,01,18,10,12,3.50
2021,01,18,10,13,3.60
2021,01,18,10,14,3.70
2021,01,18,10,15,3.70
2021,01,18,10,16,3.80
2021,01,18,10,17,3.90
2021,01,18,10,18,3.90
2021,01,18,10,19,4.00
2021,01,18,10,20,4.10
2021,01,18,10,21,4.10
2021,01,18,10,22,4.20
2021,01,18,10,23,4.20
2021,01,18,10,24,4.20
2021,01,18,10,25,4.30
2021,01,18,10,26,4.30
2021,01,18,10,27,4.30
2021,01,18,10,28,4.40
2021,01,18,10,29,4.40
2021,01,18,10,30,4.40
2021,01,18,10,31,4.40
2021,01,18,10,32,4.50
2021,01,18,10,33,4.50
2021,01,18,10,34,4.60
2021,01,18,10,35,4.60
2021,01,18,10,36,4.70
2021,01,18,10,37,4.70
2021,01,18,10,38,4.70
2021,01,18,10,39,4.80
2021,01,18,10,40,4.80
2021,01,18,10,41,4.90
2021,01,18,10,42,4.90
2021,01,18,10,43,5.00
2021,01,18,10,44,5.00
2021,01,18,10,45,5.00
2021,01,18,10,46,5.10
2021,01,18,10,47,5.10
2021,01,18,10,48,5.20
2021,01,18,10,49,5.20
2021,01,18,10,50,5.20
2021,01,18,10,51,5.20
2021,01,18,10,52,5.20
2021,01,18,10,53,5.30
2021,01,18,10,54,5.30
2021,01,18,10,55,5.30
2021,01,18,10,56,5.30
2021,01,18,10,57,5.30
2021,01,18,10,58,5.30
2021,01,18,10,59,5.40
2021,01,18,11,00,5.40
2021,01,18,11,01,5.40
2021,01,18,11,02,5.50
2021,01,18,11,03,5.50
2021,01,18,11,04,5.60
2021,01,18,11,05,5.70
2021,01,18,11,06,5.70
2021,01,18,11,07,5.70
2021,01,18,11,08,5.70
2021,01,18,11,09,5.70
2021,01,18,11,10,5.70
2021,01,18,11,11,5.80
2021,01,18,11,12,5.80
2021,01,18,11,13,5.80
2021,01,18,11,14,5.80
2021,01,18,11,15,5.90
2021,01,18,11,16,5.90
2021,01,18,11,17,5.90
2021,01,18,11,18,6.00
2021,01,18,11,19,6.00
2021,01,18,11,20,6.10
2021,01,18,11,21,6.00
2021,01,18,11,22,6.00
2021,01,18,11,23,6.00
2021,01,18,11,24,6.00
2021,01,18,11,25,6.10
2021,01,18,11,26,6.10
2021,01,18,11,27,6.10
2021,01,18,11,28,6.20
2021,01,18,11,29,6.20
2021,01,18,11,30,6.30
2021,01,18,11,31,6.30
2021,01,18,11,32,6.40
2021,01,18,11,33,6.40
2021,01,18,11,34,6.50
2021,01,18,11,35,6.50
2021,01,18,11,36,6.40
2021,01,18,11,37,6.40
2021,01,18,11,38,6.50
2021,01,18,11,39,6.50
2021,01,18,11,40,6.50
2021,01,18,11,41,6.50
2021,01,18,11,42,6.60
2021,01,18,11,43,6.60
2021,01,18,11,44,6.70
2021,01,18,11,45,6.70
2021,01,18,11,46,6.70
2021,01,18,11,47,6.80
2021,01,18,11,48,6.80
2021,01,18,11,49,6.90
2021,01,18,11,50,6.90
2021,01,18,11,51,6.90
2021,01,18,11,52,6.90
2021,01,18,11,53,6.90
2021,01,18,11,54,6.90
2021,01,18,11,55,7.00
2021,01,18,11,56,7.00
2021,01,18,11,57,7.00
2021,01,18,11,58,7.00
2021,01,18,11,59,7.10
2021,01,18,12,00,7.10
2021,01,18,12,01,7.20
2021,01,18,12,02,7.20
2021,01,18,12,03,7.20
2021,01,18,12,04,7.20
2021,01,18,12,05,7.20
2021,01,18,12,06,7.20
2021,01,18,12,07,7.20
2021,01,18,12,08,7.20
2021,01,18,12,09,7.30
2021,01,18,12,10,7.30
2021,01,18,12,11,7.30
2021,01,18,12,12,7.30
2021,01,18,12,13,7.40
2021,01,18,12,14,7.50
2021,01,18,12,15,7.50
2021,01,18,12,16,7.60
2021,01,18,12,17,7.60
2021,01,18,12,18,7.60
2021,01,18,12,19,7.60
2021,01,18,12,20,7.60
2021,01,18,12,21,7.60
2021,01,18,12,22,7.70
2021,01,18,12,23,7.70
2021,01,18,12,24,7.70
2021,01,18,12,25,7.70
2021,01,18,12,26,7.70
2021,01,18,12,27,7.80
2021,01,18,12,28,7.80
2021,01,18,12,29,7.80
2021,01,18,12,30,7.80
2021,01,18,12,31,7.80
2021,01,18,12,32,7.80
2021,01,18,12,33,7.80
2021,01,18,12,34,7.80
2021,01,18,12,35,7.80
2021,01,18,12,36,7.70
2021,01,18,12,37,7.70
2021,01,18,12,38,7.70
2021,01,18,12,39,7.80
2021,01,18,12,40,7.80
2021,01,18,12,41,7.80
2021,01,18,12,42,7.80
2021,01,18,12,43,7.80
2021,01,18,12,44,7.80
2021,01,18,12,45,7.80
2021,01,18,12,46,7.80
2021,01,18,12,47,7.80
2021,01,18,12,48,7.90
2021,01,18,12,49,7.90
2021,01,18,12,50,7.90
2021,01,18,12,51,7.90
2021,01,18,12,52,7.90
2021,01,18,12,53,7.90
2021,01,18,12,54,7.80
2021,01,18,12,55,7.80
2021,01,18,12,56,7.80
2021,01,18,12,57,7.80
2021,01,18,12,58,7.80
2021,01,18,12,59,7.80
2021,01,18,13,00,7.80
2021,01,18,13,01,7.80
2021,01,18,13,02,7.90
2021,01,18,13,03,7.90
2021,01,18,13,04,7.90
2021,01,18,13,05,8.00
2021,01,18,13,06,8.00
2021,01,18,13,07,8.00
2021,01,18,13,08,8.00
2021,01,18,13,09,8.00
2021,01,18,13,10,7.90
2021,01,18,13,11,7.90
2021,01,18,13,12,7.90
2021,01,18,13,13,7.90
2021,01,18,13,14,7.80
2021,01,18,13,15,7.80
2021,01,18,13,16,7.80
2021,01,18,13,17,7.80
2021,01,18,13,18,7.90
2021,01,18,13,19,7.90
2021,01,18,13,20,7.80
2021,01,18,13,21,7.80
2021,01,18,13,22,7.80
2021,01,18,13,23,7.80
2021,01,18,13,24,7.80
2021,01,18,13,25,7.80
2021,01,18,13,26,7.80
2021,01,18,13,27,7.80
2021,01,18,13,28,7.80
2021,01,18,13,29,7.80
2021,01,18,13,30,7.80
2021,01,18,13,31,7.80
2021,01,18,13,32,7.80
2021,01,18,13,33,7.80
2021,01,18,13,34,7.90
2021,01,18,13,35,7.90
2021,01,18,13,36,8.00
2021,01,18,13,37,8.00
2021,01,18,13,38,8.00
2021,01,18,13,39,8.10
2021,01,18,13,40,8.10
2021,01,18,13,41,8.10
2021,01,18,13,42,8.10
2021,01,18,13,43,8.10
2021,01,18,13,44,8.00
2021,01,18,13,45,8.00
2021,01,18,13,46,8.00
2021,01,18,13,47,7.90
2021,01,18,13,48,7.90
2021,01,18,13,49,7.90
2021,01,18,13,50,7.80
2021,01,18,13,51,7.80
2021,01,18,13,52,7.80
2021,01,18,13,53,7.80
2021,01,18,13,54,7.70
2021,01,18,13,55,7.70
2021,01,18,13,56,7.70
2021,01,18,13,57,7.80
2021,01,18,13,58,7.80
2021,01,18,13,59,7.80
2021,01,18,14,00,7.80
2021,01,18,14,01,7.90
2021,01,18,14,02,7.90
2021,01,18,14,03,7.90
2021,01,18,14,04,7.90
2021,01,18,14,05,7.90
2021,01,18,14,06,7.90
2021,01,18,14,07,7.90
2021,01,18,14,08,8.00
2021,01,18,14,09,8.00
2021,01,18,14,10,8.00
2021,01,18,14,11,8.00
2021,01,18,14,12,8.00
2021,01,18,14,13,7.90
2021,01,18,14,14,8.00
2021,01,18,14,15,8.00
2021,01,18,14,16,8.00
2021,01,18,14,17,8.00
2021,01,18,14,18,8.00
2021,01,18,14,19,8.10
2021,01,18,14,20,8.10
2021,01,18,14,21,8.00
2021,01,18,14,22,8.00
2021,01,18,14,23,8.00
2021,01,18,14,24,8.00
2021,01,18,14,25,8.00
2021,01,18,14,26,7.90
2021,01,18,14,27,7.90
2021,01,18,14,28,7.90
2021,01,18,14,29,7.90
2021,01,18,14,30,7.90
2021,01,18,14,31,7.80
2021,01,18,14,32,7.80
2021,01,18,14,33,7.80
2021,01,18,14,34,7.80
2021,01,18,14,35,7.80
2021,01,18,14,36,7.80
2021,01,18,14,37,7.80
2021,01,18,14,38,7.90
2021,01,18,14,39,7.90
2021,01,18,14,40,7.80
2021,01,18,14,41,7.90
2021,01,18,14,42,7.80
2021,01,18,14,43,7.80
2021,01,18,14,44,7.80
2021,01,18,14,45,7.80
2021,01,18,14,46,7.80
2021,01,18,14,47,7.80
2021,01,18,14,48,7.80
2021,01,18,14,49,7.80
2021,01,18,14,50,7.80
2021,01,18,14,51,7.80
2021,01,18,14,52,7.80
2021,01,18,14,53,7.80
2021,01,18,14,54,7.80
2021,01,18,14,55,7.70
2021,01,18,14,56,7.70
2021,01,18,14,57,7.70
2021,01,18,14,58,7.70
2021,01,18,14,59,7.70
2021,01,18,15,00,7.70
2021,01,18,15,01,7.70
2021,01,18,15,02,7.70
2021,01,18,15,03,7.70
2021,01,18,15,04,7.70
2021,01,18,15,05,7.70
2021,01,18,15,06,7.70
2021,01,18,15,07,7.70
2021,01,18,15,08,7.60
2021,01,18,15,09,7.60
2021,01,18,15,10,7.60
2021,01,18,15,11,7.60
2021,01,18,15,12,7.60
2021,01,18,15,13,7.60
2021,01,18,15,14,7.60
2021,01,18,15,15,7.60
2021,01,18,15,16,7.60
2021,01,18,15,17,7.60
2021,01,18,15,18,7.60
2021,01,18,15,19,7.60
2021,01,18,15,20,7.60
2021,01,18,15,21,7.60
2021,01,18,15,22,7.60
2021,01,18,15,23,7.60
2021,01,18,15,24,7.60
2021,01,18,15,25,7.60
2021,01,18,15,26,7.60
2021,01,18,15,27,7.60
2021,01,18,15,28,7.60
2021,01,18,15,29,7.60
2021,01,18,15,30,7.60
2021,01,18,15,31,7.60
2021,01,18,15,32,7.50
2021,01,18,15,33,7.50
2021,01,18,15,34,7.50
2021,01,18,15,35,7.50
2021,01,18,15,36,7.40
2021,01,18,15,37,7.40
2021,01,18,15,38,7.40
2021,01,18,15,39,7.40
2021,01,18,15,40,7.40
2021,01,18,15,41,7.40
2021,01,18,15,42,7.40
2021,01,18,15,43,7.40
2021,01,18,15,44,7.40
2021,01,18,15,45,7.40
2021,01,18,15,46,7.40
2021,01,18,15,47,7.40
2021,01,18,15,48,7.40
2021,01,18,15,49,7.40
2021,01,18,15,50,7.40
2021,01,18,15,51,7.40
2021,01,18,15,52,7.40
2021,01,18,15,53,7.40
2021,01,18,15,54,7.40
2021,01,18,15,55,7.40
2021,01,18,15,56,7.40
2021,01,18,15,57,7.40
2021,01,18,15,58,7.40
2021,01,18,15,59,7.40
2021,01,18,16,00,7.40
2021,01,18,16,01,7.40
2021,01,18,16,02,7.40
2021,01,18,16,03,7.30
2021,01,18,16,04,7.30
2021,01,18,16,05,7.30
2021,01,18,16,06,7.30
2021,01,18,16,07,7.30
2021,01,18,16,08,7.30
2021,01,18,16,09,7.30
2021,01,18,16,10,7.20
2021,01,18,16,11,7.20
2021,01,18,16,12,7.20
2021,01,18,16,13,7.20
2021,01,18,16,14,7.20
2021,01,18,16,15,7.20
2021,01,18,16,16,7.10
2021,01,18,16,17,7.10
2021,01,18,16,18,7.10
2021,01,18,16,19,7.10
2021,01,18,16,20,7.10
2021,01,18,16,21,7.00
2021,01,18,16,22,7.00
2021,01,18,16,23,7.00
2021,01,18,16,24,7.00
2021,01,18,16,25,6.90
2021,01,18,16,26,6.90
2021,01,18,16,27,6.90
2021,01,18,16,28,6.90
2021,01,18,16,29,6.90
2021,01,18,16,30,6.80
2021,01,18,16,31,6.80
2021,01,18,16,32,6.80
2021,01,18,16,33,6.80
2021,01,18,16,34,6.80
2021,01,18,16,35,6.70
2021,01,18,16,36,6.70
2021,01,18,16,37,6.70
2021,01,18,16,38,6.70
2021,01,18,16,39,6.60
2021,01,18,16,40,6.60
2021,01,18,16,41,6.60
2021,01,18,16,42,6.60
2021,01,18,16,43,6.50
2021,01,18,16,44,6.50
2021,01,18,16,45,6.50
2021,01,18,16,46,6.50
2021,01,18,16,47,6.50
2021,01,18,16,48,6.40
2021,01,18,16,49,6.40
2021,01,18,16,50,6.40
2021,01,18,16,51,6.40
2021,01,18,16,52,6.30
2021,01,18,16,53,6.30
2021,01,18,16,54,6.30
2021,01,18,16,55,6.30
2021,01,18,16,56,6.20
2021,01,18,16,57,6.20
2021,01,18,16,58,6.20
2021,01,18,16,59,6.20
2021,01,18,17,00,6.20
2021,01,18,17,01,6.20
2021,01,18,17,02,6.20
2021,01,18,17,03,6.20
2021,01,18,17,04,6.20
2021,01,18,17,05,6.10
2021,01,18,17,06,6.10
2021,01,18,17,07,6.10
2021,01,18,17,08,6.00
2021,01,18,17,09,6.00
2021,01,18,17,10,6.00
2021,01,18,17,11,5.90
2021,01,18,17,12,5.90
2021,01,18,17,13,5.80
2021,01,18,17,14,5.80
2021,01,18,17,15,5.80
2021,01,18,17,16,5.80
2021,01,18,17,17,5.70
2021,01,18,17,18,5.70
2021,01,18,17,19,5.70
2021,01,18,17,20,5.70
2021,01,18,17,21,5.60
2021,01,18,17,22,5.60
2021,01,18,17,23,5.60
2021,01,18,17,24,5.60
2021,01,18,17,25,5.60
2021,01,18,17,26,5.50
2021,01,18,17,27,5.50
2021,01,18,17,28,5.40
2021,01,18,17,29,5.40
2021,01,18,17,30,5.40
2021,01,18,17,31,5.40
2021,01,18,17,32,5.30
2021,01,18,17,33,5.30
2021,01,18,17,34,5.30
2021,01,18,17,35,5.30
2021,01,18,17,36,5.30
2021,01,18,17,37,5.30
2021,01,18,17,38,5.20
2021,01,18,17,39,5.20
2021,01,18,17,40,5.20
2021,01,18,17,41,5.20
2021,01,18,17,42,5.10
2021,01,18,17,43,5.10
2021,01,18,17,44,5.10
2021,01,18,17,45,5.10
2021,01,18,17,46,5.00
2021,01,18,17,47,5.00
2021,01,18,17,48,5.00
2021,01,18,17,49,5.00
2021,01,18,17,50,4.90
2021,01,18,17,51,4.90
2021,01,18,17,52,4.90
2021,01,18,17,53,4.90
2021,01,18,17,54,4.90
2021,01,18,17,55,4.90
2021,01,18,17,56,4.90
2021,01,18,17,57,4.90
2021,01,18,17,58,4.90
2021,01,18,17,59,4.90
2021,01,18,18,00,4.90
2021,01,18,18,01,4.80
2021,01,18,18,02,4.80
2021,01,18,18,03,4.80
2021,01,18,18,04,4.70
2021,01,18,18,05,4.70
2021,01,18,18,06,4.60
2021,01,18,18,07,4.60
2021,01,18,18,08,4.50
2021,01,18,18,09,4.40
2021,01,18,18,10,4.40
2021,01,18,18,11,4.30
2021,01,18,18,12,4.30
2021,01,18,18,13,4.30
2021,01,18,18,14,4.30
2021,01,18,18,15,4.30
2021,01,18,18,16,4.20
2021,01,18,18,17,4.20
2021,01,18,18,18,4.20
2021,01,18,18,19,4.20
2021,01,18,18,20,4.20
2021,01,18,18,21,4.20
2021,01,18,18,22,4.20
2021,01,18,18,23,4.20
2021,01,18,18,24,4.20
2021,01,18,18,25,4.20
2021,01,18,18,26,4.20
2021,01,18,18,27,4.20
2021,01,18,18,28,4.20
2021,01,18,18,29,4.20
2021,01,18,18,30,4.10
2021,01,18,18,31,4.10
2021,01,18,18,32,4.10
2021,01,18,18,33,4.10
2021,01,18,18,34,4.10
2021,01,18,18,35,4.10
2021,01,18,18,36,4.00
2021,01,18,18,37,4.00
2021,01,18,18,38,4.00
2021,01,18,18,39,3.90
2021,01,18,18,40,3.90
2021,01,18,18,41,3.90
2021,01,18,18,42,3.90
2021,01,18,18,43,3.90
2021,01,18,18,44,3.80
2021,01,18,18,45,3.80
2021,01,18,18,46,3.80
2021,01,18,18,47,3.80
2021,01,18,18,48,3.80
2021,01,18,18,49,3.80
2021,01,18,18,50,3.80
2021,01,18,18,51,3.80
2021,01,18,18,52,3.80
2021,01,18,18,53,3.80
2021,01,18,18,54,3.80
2021,01,18,18,55,3.80
2021,01,18,18,56,3.80
2021,01,18,18,57,3.70
2021,01,18,18,58,3.70
2021,01,18,18,59,3.70
2021,01,18,19,00,3.70
2021,01,18,19,01,3.60
2021,01,18,19,02,3.60
2021,01,18,19,03,3.50
2021,01,18,19,04,3.50
2021,01,18,19,05,3.50
2021,01,18,19,06,3.40
2021,01,18,19,07,3.40
2021,01,18,19,08,3.40
2021,01,18,19,09,3.40
2021,01,18,19,10,3.30
2021,01,18,19,11,3.30
2021,01,18,19,12,3.30
2021,01,18,19,13,3.30
2021,01,18,19,14,3.30
2021,01,18,19,15,3.30
2021,01,18,19,16,3.30
2021,01,18,19,17,3.30
2021,01,18,19,18,3.30
2021,01,18,19,19,3.30
2021,01,18,19,20,3.30
2021,01,18,19,21,3.30
2021,01,18,19,22,3.30
2021,01,18,19,23,3.30
2021,01,18,19,24,3.20
2021,01,18,19,25,3.20
2021,01,18,19,26,3.10
2021,01,18,19,27,3.00
2021,01,18,19,28,2.90
2021,01,18,19,29,2.80
2021,01,18,19,30,2.80
2021,01,18,19,31,2.70
2021,01,18,19,32,2.70
2021,01,18,19,33,2.70
2021,01,18,19,34,2.70
2021,01,18,19,35,2.60
2021,01,18,19,36,2.60
2021,01,18,19,37,2.70
2021,01,18,19,38,2.70
2021,01,18,19,39,2.70
2021,01,18,19,40,2.70
2021,01,18,19,41,2.70
2021,01,18,19,42,2.70
2021,01,18,19,43,2.70
2021,01,18,19,44,2.70
2021,01,18,19,45,2.60
2021,01,18,19,46,2.60
2021,01,18,19,47,2.60
2021,01,18,19,48,2.50
2021,01,18,19,49,2.50
2021,01,18,19,50,2.50
2021,01,18,19,51,2.50
2021,01,18,19,52,2.40
2021,01,18,19,53,2.40
2021,01,18,19,54,2.40
2021,01,18,19,55,2.40
2021,01,18,19,56,2.40
2021,01,18,19,57,2.40
2021,01,18,19,58,2.40
2021,01,18,19,59,2.30
2021,01,18,20,00,2.30
2021,01,18,20,01,2.20
2021,01,18,20,02,2.20
2021,01,18,20,03,2.20
2021,01,18,20,04,2.20
2021,01,18,20,05,2.20
2021,01,18,20,06,2.20
2021,01,18,20,07,2.20
2021,01,18,20,08,2.20
2021,01,18,20,09,2.20
2021,01,18,20,10,2.20
2021,01,18,20,11,2.20
2021,01,18,20,12,2.20
2021,01,18,20,13,2.20
2021,01,18,20,14,2.10
2021,01,18,20,15,2.10
2021,01,18,20,16,2.10
2021,01,18,20,17,2.10
2021,01,18,20,18,2.10
2021,01,18,20,19,2.10
2021,01,18,20,20,2.10
2021,01,18,20,21,2.10
2021,01,18,20,22,2.10
2021,01,18,20,23,2.10
2021,01,18,20,24,2.10
2021,01,18,20,25,2.10
2021,01,18,20,26,2.00
2021,01,18,20,27,2.00
2021,01,18,20,28,2.00
2021,01,18,20,29,1.90
2021,01,18,20,30,1.90
2021,01,18,20,31,1.90
2021,01,18,20,32,1.90
2021,01,18,20,33,1.90
2021,01,18,20,34,1.90
2021,01,18,20,35,1.90
2021,01,18,20,36,1.80
2021,01,18,20,37,1.80
2021,01,18,20,38,1.80
2021,01,18,20,39,1.80
2021,01,18,20,40,1.90
2021,01,18,20,41,1.90
2021,01,18,20,42,1.90
2021,01,18,20,43,1.90
2021,01,18,20,44,1.80
2021,01,18,20,45,1.80
2021,01,18,20,46,1.80
2021,01,18,20,47,1.70
2021,01,18,20,48,1.70
2021,01,18,20,49,1.70
2021,01,18,20,50,1.60
2021,01,18,20,51,1.50
2021,01,18,20,52,1.50
2021,01,18,20,53,1.40
2021,01,18,20,54,1.30
2021,01,18,20,55,1.30
2021,01,18,20,56,1.40
2021,01,18,20,57,1.50
2021,01,18,20,58,1.50
2021,01,18,20,59,1.60
2021,01,18,21,00,1.60
2021,01,18,21,01,1.60
2021,01,18,21,02,1.70
2021,01,18,21,03,1.70
2021,01,18,21,04,1.70
2021,01,18,21,05,1.70
2021,01,18,21,06,1.70
2021,01,18,21,07,1.70
2021,01,18,21,08,1.80
2021,01,18,21,09,1.80
2021,01,18,21,10,1.80
2021,01,18,21,11,1.80
2021,01,18,21,12,1.80
2021,01,18,21,13,1.70
2021,01,18,21,14,1.70
2021,01,18,21,15,1.60
2021,01,18,21,16,1.60
2021,01,18,21,17,1.60
2021,01,18,21,18,1.60
2021,01,18,21,19,1.50
2021,01,18,21,20,1.50
2021,01,18,21,21,1.50
2021,01,18,21,22,1.50
2021,01,18,21,23,1.50
2021,01,18,21,24,1.40
2021,01,18,21,25,1.40
2021,01,18,21,26,1.40
2021,01,18,21,27,1.30
2021,01,18,21,28,1.30
2021,01,18,21,29,1.30
2021,01,18,21,30,1.30
2021,01,18,21,31,1.30
2021,01,18,21,32,1.20
2021,01,18,21,33,1.20
2021,01,18,21,34,1.20
2021,01,18,21,35,1.20
2021,01,18,21,36,1.20
2021,01,18,21,37,1.20
2021,01,18,21,38,1.20
2021,01,18,21,39,1.20
2021,01,18,21,40,1.20
2021,01,18,21,41,1.20
2021,01,18,21,42,1.20
2021,01,18,21,43,1.20
2021,01,18,21,44,1.20
2021,01,18,21,45,1.20
2021,01,18,21,46,1.10
2021,01,18,21,47,1.10
2021,01,18,21,48,1.10
2021,01,18,21,49,1.10
2021,01,18,21,50,1.20
2021,01,18,21,51,1.20
2021,01,18,21,52,1.10
2021,01,18,21,53,1.00
2021,01,18,21,54,1.00
2021,01,18,21,55,0.90
2021,01,18,21,56,0.80
2021,01,18,21,57,0.80
2021,01,18,21,58,0.80
2021,01,18,21,59,0.80
2021,01,18,22,00,0.80
2021,01,18,22,01,0.80
2021,01,18,22,02,0.80
2021,01,18,22,03,0.80
2021,01,18,22,04,0.80
2021,01,18,22,05,0.90
2021,01,18,22,06,1.00
2021,01,18,22,07,1.10
2021,01,18,22,08,1.20
2021,01,18,22,09,1.30
2021,01,18,22,10,1.40
2021,01,18,22,11,1.60
2021,01,18,22,12,1.60
2021,01,18,22,13,1.70
2021,01,18,22,14,1.80
2021,01,18,22,15,1.80
2021,01,18,22,16,1.80
2021,01,18,22,17,1.70
2021,01,18,22,18,1.70
2021,01,18,22,19,1.60
2021,01,18,22,20,1.50
2021,01,18,22,21,1.40
2021,01,18,22,22,1.30
2021,01,18,22,23,1.20
2021,01,18,22,24,1.10
2021,01,18,22,25,1.10
2021,01,18,22,26,1.10
2021,01,18,22,27,1.10
2021,01,18,22,28,1.20
2021,01,18,22,29,1.20
2021,01,18,22,30,1.30
2021,01,18,22,31,1.30
2021,01,18,22,32,1.40
2021,01,18,22,33,1.40
2021,01,18,22,34,1.40
2021,01,18,22,35,1.40
2021,01,18,22,36,1.40
2021,01,18,22,37,1.40
2021,01,18,22,38,1.40
2021,01,18,22,39,1.40
2021,01,18,22,40,1.40
2021,01,18,22,41,1.40
2021,01,18,22,42,1.40
2021,01,18,22,43,1.40
2021,01,18,22,44,1.40
2021,01,18,22,45,1.40
2021,01,18,22,46,1.50
2021,01,18,22,47,1.50
2021,01,18,22,48,1.60
2021,01,18,22,49,1.60
2021,01,18,22,50,1.60
2021,01,18,22,51,1.70
2021,01,18,22,52,1.70
2021,01,18,22,53,1.70
2021,01,18,22,54,1.80
2021,01,18,22,55,1.80
2021,01,18,22,56,1.90
2021,01,18,22,57,2.00
2021,01,18,22,58,2.10
2021,01,18,22,59,2.20
2021,01,18,23,00,2.20
2021,01,18,23,01,2.20
2021,01,18,23,02,2.20
2021,01,18,23,03,2.30
2021,01,18,23,04,2.30
2021,01,18,23,05,2.30
2021,01,18,23,06,2.30
2021,01,18,23,07,2.30
2021,01,18,23,08,2.30
2021,01,18,23,09,2.20
2021,01,18,23,10,2.20
2021,01,18,23,11,2.20
2021,01,18,23,12,2.20
2021,01,18,23,13,2.10
2021,01,18,23,14,2.20
2021,01,18,23,15,2.10
2021,01,18,23,16,2.10
2021,01,18,23,17,2.10
2021,01,18,23,18,2.10
2021,01,18,23,19,2.10
2021,01,18,23,20,2.00
2021,01,18,23,21,2.00
2021,01,18,23,22,2.00
2021,01,18,23,23,2.00
2021,01,18,23,24,2.00
2021,01,18,23,25,2.00
2021,01,18,23,26,1.90
2021,01,18,23,27,1.90
2021,01,18,23,28,1.90